Precipitable_Water
0.42 0.43 0.43 0.43 0.42 0.41 0.40 0.39 0.37 0.37 0.37 0.38 0.39 0.41 0.43 0.47 0.50 0.61 0.80 1.12 1.47 1.64 1.74 1.77 1.51 1.29 1.26 1.24 1.28 1.27 1.16 1.08 1.05 1.02 1.00 1.11 1.15 1.15 1.14 1.11 1.11 1.10 1.13
0.40 0.41 0.42 0.41 0.39 0.37 0.38 0.38 0.38 0.39 0.39 0.41 0.42 0.44 0.47 0.52 0.55 0.58 0.62 0.85 1.08 1.45 1.52 1.72 1.72 1.47 1.25 1.29 1.26 1.26 1.17 1.14 1.12 0.96 0.93 0.82 0.97 1.00 1.09 1.13 1.07 1.08 1.14
0.39 0.40 0.39 0.38 0.39 0.38 0.39 0.41 0.42 0.43 0.43 0.45 0.47 0.48 0.49 0.51 0.54 0.59 0.58 0.68 0.87 1.10 1.39 1.50 1.67 1.54 1.43 1.27 1.26 1.23 1.22 1.03 1.11 1.07 0.95 0.76 0.67 0.84 1.01 1.05 1.08 1.11 1.17
0.42 0.42 0.40 0.39 0.39 0.40 0.43 0.44 0.46 0.46 0.46 0.48 0.48 0.48 0.46 0.44 0.51 0.57 0.63 0.60 0.63 0.74 0.94 1.36 1.58 1.86 1.60 1.35 1.31 1.25 1.22 1.20 1.01 1.11 1.11 1.03 0.90 0.72 0.69 0.97 1.07 1.18 1.19
0.42 0.41 0.41 0.41 0.42 0.43 0.44 0.45 0.48 0.49 0.50 0.50 0.50 0.51 0.50 0.54 0.56 0.58 0.62 0.63 0.62 0.67 0.76 0.92 1.30 1.42 1.49 1.60 1.35 1.26 1.26 1.24 1.13 1.03 1.00 1.00 0.95 0.93 0.80 0.70 0.88 1.12 1.20
0.44 0.43 0.44 0.43 0.43 0.46 0.45 0.48 0.49 0.51 0.54 0.52 0.53 0.53 0.54 0.54 0.56 0.58 0.60 0.67 0.67 0.66 0.65 0.74 1.06 1.39 1.46 1.75 1.52 1.36 1.31 1.24 1.22 1.14 1.07 0.95 0.87 0.82 0.83 0.79 0.87 0.95 1.14
0.43 0.40 0.40 0.42 0.43 0.44 0.45 0.50 0.51 0.52 0.55 0.54 0.54 0.56 0.59 0.60 0.58 0.58 0.61 0.64 0.66 0.67 0.65 0.72 0.85 1.13 1.45 1.47 1.67 1.55 1.32 1.30 1.22 1.11 1.06 1.07 1.03 1.01 0.97 0.96 0.95 0.95 1.11
0.42 0.40 0.40 0.42 0.43 0.44 0.46 0.51 0.53 0.53 0.55 0.55 0.54 0.57 0.60 0.60 0.60 0.61 0.64 0.65 0.70 0.76 0.80 0.72 0.73 0.82 1.20 1.55 1.51 1.52 1.39 1.36 1.24 1.11 1.09 1.07 1.10 1.08 1.02 0.97 1.00 0.95 1.02
0.40 0.40 0.40 0.41 0.41 0.43 0.47 0.53 0.55 0.55 0.56 0.56 0.56 0.57 0.58 0.57 0.55 0.55 0.59 0.59 0.68 0.75 0.78 0.74 0.68 0.69 0.76 1.12 1.34 1.61 1.43 1.37 1.26 1.15 1.08 1.07 1.12 1.14 1.13 1.16 1.15 1.02 0.84
0.38 0.38 0.38 0.39 0.40 0.42 0.44 0.51 0.57 0.56 0.56 0.57 0.58 0.58 0.59 0.61 0.64 0.64 0.64 0.63 0.64 0.70 0.73 0.70 0.69 0.68 0.65 0.87 1.47 1.32 1.56 1.45 1.33 1.26 1.10 1.12 1.14 1.15 1.21 1.23 1.25 1.19 1.03
0.36 0.37 0.37 0.38 0.39 0.41 0.42 0.45 0.50 0.58 0.57 0.57 0.57 0.57 0.59 0.61 0.64 0.66 0.68 0.69 0.70 0.72 0.69 0.61 0.60 0.60 0.68 0.80 1.13 1.31 1.47 1.44 1.34 1.29 1.14 1.16 1.17 1.19 1.30 1.28 1.29 1.19 1.10
0.38 0.37 0.37 0.37 0.38 0.38 0.40 0.42 0.47 0.50 0.58 0.59 0.59 0.59 0.60 0.63 0.62 0.64 0.67 0.68 0.67 0.69 0.66 0.62 0.62 0.61 0.64 0.76 1.04 1.07 1.28 1.43 1.38 1.28 1.22 1.20 1.27 1.27 1.27 1.28 1.24 1.18 1.19
0.39 0.39 0.38 0.37 0.37 0.38 0.39 0.41 0.42 0.47 0.53 0.59 0.60 0.61 0.61 0.61 0.64 0.63 0.65 0.66 0.66 0.75 0.74 0.73 0.63 0.65 0.63 0.62 0.87 1.05 1.19 1.31 1.27 1.22 1.22 1.18 1.21 1.25 1.28 1.30 1.26 1.21 1.24
0.37 0.38 0.37 0.36 0.37 0.38 0.39 0.40 0.41 0.44 0.48 0.54 0.57 0.59 0.61 0.61 0.61 0.62 0.64 0.64 0.68 0.70 0.79 0.75 0.71 0.68 0.68 0.68 0.81 0.93 1.06 1.21 1.22 1.26 1.22 1.21 1.17 1.21 1.21 1.21 1.18 1.20 1.21
0.34 0.36 0.35 0.35 0.36 0.37 0.38 0.39 0.40 0.42 0.45 0.47 0.52 0.56 0.60 0.62 0.61 0.61 0.62 0.65 0.67 0.69 0.72 0.72 0.70 0.69 0.65 0.67 0.71 0.90 0.97 1.08 1.13 1.18 1.12 1.14 1.13 1.21 1.18 1.15 1.19 1.16 1.12
0.32 0.34 0.34 0.33 0.33 0.35 0.36 0.37 0.38 0.39 0.42 0.43 0.45 0.50 0.54 0.59 0.59 0.60 0.60 0.63 0.66 0.68 0.69 0.73 0.70 0.70 0.70 0.67 0.77 0.84 0.94 0.97 1.03 1.10 1.09 1.10 1.10 1.10 1.11 1.13 1.16 1.15 1.06
0.29 0.31 0.31 0.32 0.33 0.34 0.35 0.35 0.37 0.39 0.39 0.39 0.41 0.45 0.46 0.49 0.53 0.56 0.58 0.59 0.61 0.65 0.67 0.68 0.69 0.69 0.70 0.73 0.87 0.93 0.93 0.92 0.93 0.96 1.01 1.00 1.04 1.07 1.05 1.02 1.02 1.00 0.98
0.28 0.30 0.31 0.31 0.33 0.33 0.35 0.35 0.37 0.37 0.37 0.37 0.38 0.40 0.41 0.42 0.45 0.46 0.50 0.51 0.52 0.55 0.56 0.59 0.63 0.66 0.67 0.76 0.79 0.86 0.87 0.86 0.90 0.93 0.94 0.94 0.91 0.88 0.84 0.82 0.82 0.82 0.80
0.29 0.30 0.30 0.30 0.32 0.31 0.33 0.34 0.34 0.35 0.35 0.35 0.37 0.38 0.39 0.37 0.39 0.42 0.42 0.43 0.46 0.47 0.47 0.49 0.50 0.53 0.61 0.66 0.68 0.72 0.77 0.82 0.84 0.85 0.87 0.86 0.84 0.83 0.82 0.78 0.71 0.67 0.66
0.28 0.28 0.29 0.29 0.29 0.29 0.31 0.31 0.31 0.32 0.32 0.33 0.35 0.37 0.38 0.36 0.35 0.36 0.38 0.42 0.42 0.41 0.43 0.44 0.44 0.47 0.49 0.53 0.58 0.59 0.58 0.56 0.59 0.65 0.64 0.66 0.67 0.63 0.63 0.62 0.59 0.54 0.55
0.28 0.28 0.29 0.28 0.27 0.28 0.28 0.27 0.28 0.29 0.31 0.32 0.33 0.34 0.36 0.37 0.36 0.35 0.33 0.35 0.37 0.39 0.39 0.38 0.39 0.41 0.42 0.43 0.45 0.46 0.49 0.49 0.45 0.45 0.46 0.50 0.48 0.50 0.50 0.51 0.50 0.49 0.52
0.27 0.28 0.27 0.27 0.25 0.25 0.24 0.22 0.23 0.26 0.28 0.29 0.29 0.30 0.32 0.33 0.35 0.33 0.33 0.31 0.31 0.30 0.31 0.34 0.34 0.36 0.37 0.39 0.40 0.39 0.40 0.41 0.41 0.43 0.41 0.41 0.41 0.40 0.41 0.42 0.43 0.45 0.47
0.27 0.27 0.23 0.19 0.19 0.19 0.20 0.18 0.20 0.22 0.23 0.23 0.24 0.25 0.27 0.29 0.30 0.28 0.28 0.28 0.28 0.29 0.29 0.29 0.29 0.31 0.34 0.35 0.36 0.36 0.36 0.35 0.33 0.35 0.36 0.37 0.36 0.37 0.36 0.36 0.37 0.38 0.39
0.21 0.18 0.17 0.15 0.14 0.16 0.17 0.18 0.18 0.19 0.19 0.18 0.18 0.20 0.21 0.22 0.24 0.26 0.26 0.25 0.25 0.24 0.25 0.25 0.25 0.27 0.29 0.31 0.33 0.33 0.34 0.34 0.33 0.33 0.33 0.33 0.33 0.34 0.34 0.35 0.34 0.34 0.34
0.16 0.15 0.14 0.13 0.12 0.15 0.15 0.16 0.17 0.17 0.16 0.16 0.16 0.16 0.17 0.18 0.17 0.18 0.20 0.19 0.20 0.22 0.22 0.23 0.23 0.23 0.24 0.27 0.30 0.30 0.30 0.31 0.31 0.32 0.31 0.31 0.30 0.29 0.29 0.30 0.30 0.31 0.31
0.14 0.13 0.13 0.12 0.12 0.14 0.15 0.16 0.16 0.16 0.15 0.14 0.14 0.14 0.14 0.15 0.15 0.15 0.15 0.18 0.17 0.17 0.18 0.19 0.20 0.21 0.22 0.23 0.24 0.26 0.27 0.28 0.28 0.27 0.27 0.27 0.27 0.27 0.28 0.28 0.28 0.28 0.29
Wind_Speed
27 28 31 33 35 37 40 42 44 45 45 44 44 45 47 49 50 49 48 47 49 49 49 47 45 46 44 41 39 37 35 33 30 27 25 23 22 23 22 20 19 19 19
27 29 31 33 35 38 41 43 44 44 44 45 45 46 47 48 50 50 51 51 51 51 51 50 51 50 49 46 44 41 37 35 35 29 26 23 23 23 24 22 22 21 20
28 30 32 33 37 38 41 42 43 45 45 46 45 45 47 47 47 49 49 51 53 53 53 54 54 59 49 50 47 45 42 38 37 35 28 24 23 23 25 26 24 24 23
27 29 32 35 36 39 40 42 44 45 45 45 45 45 44 46 47 48 50 50 53 55 55 55 57 60 54 54 52 47 45 42 39 36 35 29 24 22 21 25 26 25 26
28 30 33 35 37 39 41 42 41 39 39 39 37 37 38 42 45 46 48 51 51 53 57 56 56 61 62 56 53 50 48 46 42 39 35 32 28 25 22 21 22 24 24
28 31 32 33 35 38 40 40 36 36 36 34 33 33 34 35 37 41 45 47 50 52 55 57 56 54 56 57 54 53 51 48 45 41 39 36 31 27 25 22 22 22 22
28 29 31 32 34 37 39 36 34 35 36 35 33 33 33 34 35 38 40 44 48 52 53 54 55 53 53 60 58 55 54 51 48 44 40 38 36 31 27 25 23 22 23
27 28 30 31 33 35 36 35 33 34 34 34 31 31 30 29 32 35 39 42 45 48 52 54 54 54 51 49 60 59 56 53 50 46 43 39 37 34 31 28 26 24 24
26 27 28 29 30 32 35 34 32 32 32 31 29 26 26 28 31 34 37 40 44 46 50 54 55 57 57 55 52 68 59 55 51 48 45 41 38 36 33 31 28 25 23
24 25 26 27 28 29 32 32 31 31 31 30 28 29 27 29 31 33 35 38 42 45 49 52 55 55 57 56 43 53 57 54 52 49 46 43 39 37 35 34 32 30 27
22 24 24 25 26 27 29 31 30 30 31 31 30 28 26 25 25 28 31 30 34 40 45 48 51 50 51 52 46 45 55 54 53 50 47 44 41 39 36 34 33 32 30
21 21 22 23 24 25 28 30 29 29 30 30 30 29 27 27 25 25 21 23 26 30 36 40 40 42 44 48 46 45 58 55 53 49 47 45 42 40 38 36 34 34 33
19 20 21 22 23 24 26 27 29 28 29 29 29 29 29 27 23 19 20 14 11 11 16 24 30 34 39 41 40 43 31 53 48 48 46 42 39 39 38 38 37 36 35
18 18 20 21 22 23 24 26 27 28 28 27 27 29 29 27 24 17 15 14 8 5 3 12 20 26 30 36 34 35 34 43 45 43 42 40 39 37 38 37 36 34 35
18 18 19 20 21 22 24 25 25 26 27 27 26 26 27 26 24 19 13 14 10 9 5 6 15 22 24 30 35 28 33 34 37 42 41 40 38 37 43 40 37 36 35
17 18 19 20 21 22 23 24 24 25 25 26 26 25 25 25 23 21 16 14 13 11 10 5 8 15 21 20 22 33 31 30 36 37 38 38 39 38 38 40 40 39 38
17 18 19 20 21 22 22 23 23 23 24 24 25 24 24 24 24 21 21 18 15 13 12 10 2 6 11 17 18 21 27 28 28 33 35 35 34 35 35 38 39 39 41
17 18 18 20 20 21 21 21 21 22 22 22 23 23 24 23 23 21 20 20 17 16 14 13 8 3 1 8 16 17 21 22 25 26 28 30 33 33 34 36 39 40 40
17 17 18 19 20 20 20 20 21 21 21 21 21 21 21 22 22 20 19 19 17 15 15 12 10 9 5 9 9 11 14 17 21 21 25 26 27 30 32 33 34 35 35
17 17 18 19 19 20 20 20 20 20 21 21 21 20 20 20 20 20 19 17 17 14 13 14 12 11 9 10 8 4 4 7 10 12 14 18 21 23 25 27 29 30 32
17 18 18 19 20 20 20 20 20 20 20 20 20 20 19 18 19 18 18 18 16 15 13 15 14 13 12 12 11 10 8 9 9 9 11 14 15 19 21 23 26 28 29
17 18 18 19 19 19 19 19 20 20 20 20 20 19 19 18 18 18 18 18 17 17 16 15 15 15 15 14 13 13 12 12 11 13 14 15 16 17 19 21 23 24 25
16 16 16 16 17 17 18 19 20 20 20 19 19 19 19 18 17 19 19 19 18 17 16 16 15 15 14 14 14 14 13 13 12 13 15 16 17 17 19 20 21 23 24
13 14 13 14 15 16 17 17 18 18 18 19 18 18 18 18 18 18 18 19 19 18 18 17 16 16 16 16 16 16 16 16 16 16 17 17 17 18 19 20 21 23 24
10 11 11 12 13 14 15 17 18 18 18 18 19 18 18 18 18 18 19 19 19 19 18 18 18 18 18 19 19 19 19 19 19 19 19 20 20 20 21 22 23 24 24
8 9 10 11 12 14 15 16 17 18 19 19 19 20 20 19 18 18 18 19 19 20 20 20 20 20 20 21 21 20 21 21 21 21 22 22 23 23 24 25 26 26 27
Wind_Direction
303 304 306 306 306 305 303 301 297 294 289 284 279 272 267 263 259 256 254 251 248 247 246 238 235 232 230 231 230 230 230 230 229 230 233 236 239 240 243 245 247 249 252
308 309 309 309 310 308 308 305 301 296 291 286 280 274 268 262 259 257 253 250 248 247 245 245 238 232 228 228 227 227 228 229 227 229 229 233 239 241 242 245 247 252 254
309 310 311 312 312 312 311 310 306 301 294 289 282 275 269 263 258 256 255 250 248 247 246 244 244 230 230 227 226 225 226 227 228 227 229 231 238 239 242 245 249 253 255
309 310 312 314 316 316 315 314 310 305 300 292 284 277 270 265 260 256 254 253 249 246 245 245 243 236 229 228 225 224 224 226 227 227 228 231 235 238 245 247 249 254 257
310 312 314 315 317 318 318 317 314 312 307 300 290 281 274 267 261 258 255 252 250 247 245 245 245 243 225 228 224 224 222 224 226 227 227 230 234 238 243 247 252 253 258
311 314 315 317 319 321 322 320 317 316 315 307 297 287 280 275 267 262 258 254 250 248 246 244 245 246 241 227 224 223 223 222 224 226 227 228 231 236 241 247 250 254 259
313 316 318 319 321 324 326 324 322 320 320 314 302 294 284 277 273 268 263 259 253 247 246 245 243 244 242 241 230 225 223 222 223 224 227 229 232 236 241 243 248 253 259
313 317 320 320 323 326 328 329 326 325 323 321 312 300 293 282 278 274 267 261 256 250 246 244 243 243 241 238 237 228 223 222 222 224 225 229 231 234 238 243 245 252 258
313 316 319 323 325 328 332 332 330 331 330 328 324 314 301 293 290 282 274 266 257 253 247 245 243 243 241 242 244 227 222 221 222 224 225 229 232 235 238 240 242 246 255
314 317 319 323 327 330 333 336 336 336 337 337 333 327 315 304 293 286 281 274 260 253 249 245 243 244 241 239 245 222 223 221 223 224 225 227 231 234 237 239 242 246 252
315 317 319 324 327 331 336 339 340 341 341 340 340 336 330 322 309 298 288 279 265 254 250 246 242 241 238 233 238 236 221 222 222 224 225 228 230 233 235 239 241 243 249
313 319 323 326 329 334 338 343 343 343 345 347 345 345 341 333 325 321 300 294 277 263 250 242 236 235 232 230 235 243 229 223 221 222 224 227 230 233 236 238 240 243 247
315 320 325 327 331 333 339 344 347 346 347 349 353 352 349 346 336 334 331 316 303 273 240 229 227 226 228 228 234 233 226 217 218 219 222 225 230 235 237 239 240 243 246
314 319 324 328 331 334 338 343 347 350 351 350 353 357 358 354 353 345 352 360 351 327 258 226 220 222 225 226 232 233 234 217 217 218 220 225 231 235 239 240 241 242 244
317 319 322 327 331 335 338 341 345 349 354 354 354 357 359 3 6 7 6 9 14 9 338 260 226 222 225 227 225 231 229 215 218 220 223 228 234 236 243 238 239 243 246
317 321 323 326 329 331 334 337 342 347 351 355 358 359 360 4 11 17 13 8 15 4 357 338 233 222 221 224 226 229 237 229 220 224 227 231 237 243 242 239 241 248 249
317 319 323 324 326 328 330 333 336 341 347 352 356 359 2 4 8 13 17 21 17 18 25 26 356 224 230 228 234 237 234 233 222 226 227 231 239 242 243 248 250 252 253
316 317 319 322 326 328 328 330 334 337 341 347 352 355 0 2 5 11 14 17 23 27 32 32 33 42 257 262 264 258 235 231 227 219 231 237 242 248 250 254 256 256 255
317 318 321 322 324 327 327 329 333 335 337 341 345 349 352 358 2 6 6 12 17 19 25 27 31 27 351 328 305 242 254 245 247 244 241 243 247 252 255 256 257 258 257
316 317 319 322 324 324 325 326 329 332 335 336 338 341 345 352 356 1 2 4 8 14 20 20 21 14 13 8 8 341 264 258 253 254 255 256 253 261 261 261 262 262 263
316 317 318 320 323 323 323 322 324 328 328 329 332 336 338 340 349 351 356 357 359 1 359 2 3 3 356 352 349 345 322 302 291 281 278 270 271 272 269 268 266 266 265
315 316 317 319 321 323 324 325 325 323 325 327 328 330 332 334 336 343 345 349 348 351 350 349 347 348 347 345 341 338 327 316 298 289 286 284 282 280 276 274 274 271 268
317 321 323 326 329 330 331 330 329 326 324 325 326 326 326 328 328 332 336 339 341 340 341 341 339 336 332 328 330 325 321 315 304 295 293 289 287 284 283 282 282 278 273
326 329 331 335 339 344 347 347 344 341 337 334 331 327 326 327 326 323 327 330 331 331 331 329 325 323 320 319 316 313 309 306 301 297 293 293 292 289 286 286 284 281 279
338 345 348 350 352 354 357 359 360 359 357 353 349 345 336 330 327 325 323 325 325 324 319 319 318 317 316 315 311 308 307 302 299 295 292 293 292 292 291 289 286 284 283
350 360 3 3 3 4 4 6 7 8 8 7 4 1 358 354 344 336 329 327 325 322 320 317 314 311 311 310 308 305 303 302 297 296 295 294 293 291 290 289 288 287 287